FENGYUN 1C DEB

Satellite information

Favourite Embed

Satellite Type and Status

DEBRISIN ORBIT

Key statistics

Satellite FENGYUN 1C DEB at a glance.

Uptime

9493

Days in orbit

Revolutions

≈ 14.3

Per day

Orbit

SSO

Sun Synchronous Orbit

Inclination

98.8

Latest

Satellite identification and parameters

Extended collection of information and parameters for FENGYUN 1C DEB.

Object identification

Identified? True

Debris? True

Object name: FENGYUN 1C DEB

International designator: 1999-025BHL

Object number (NORAD): 31158

Object ID (CCSDS): 31158

Country: PEOPLES REPUBLIC OF CHINA (PRC)

Current information (Y/N): Y

RCS size: SMALL

Orbital parameters

Period: 100.64 minutes

Inclination: 98.7774 deg

SMA: 7167.058 km

Apoapsis: 822.739 km

Periapsis: 755.107 km

RAAN: 198.3733 deg

Eccentricy: 0.0047182

Argument of periapsis: 331.3976 deg

Mean anomaly: 28.4619 deg

Mean motion: 14.30841056 rev/day

Mean motion (dot): 0.00007269 rev/day2

B* drag term: 0.0027525 1/REarth

Two-line elements (TLE)

Creation date: May 3, 2025, 10:56 p.m.

Reference frame: TEME

Reference center: EARTH

Epoch: May 2, 2025, 11 a.m. UTC

TLE line 0: 0 FENGYUN 1C DEB

TLE line 1: 1 31158U 99025BHL 25122.45874377 .00007269 00000-0 27525-2 0 9997

TLE line 2: 2 31158 98.7774 198.3733 0047182 331.3976 28.4619 14.30841056936000

Live tracking on map

Real-time ground track for satellite FENGYUN 1C DEB.

In-orbit conjunctions

A list of the most updated potential collisions computed for object FENGYUN 1C DEB.

Target Orbit TCA Probability of collision Miss distance Type
IRIDIUM 44 LEO 2025-03-15 05:05:31 0.0002798018 77.0 (m) PAYLOAD

Associated space launch

Chinese polar orbiting meteorological satellite

FENGYUN 1C DEB was lifted into orbit during the mission ‘Long March 4B | Feng Yun 1C’, on board a Long March 4B space rocket.

The launch took place on May 10, 1999, 1:33 a.m. from Launch Complex 7.

For more information about the launch, click the button.

Launch to space Long March 4B | Feng Yun 1C
Long March 4B | Feng Yun 1C

Agency: N/A

Status: Launch Successful

Launch date: May 10, 1999, 1:33 a.m. UTC

Rocket: Long March 4B

Launch pad: Launch Complex 7

Location: Taiyuan Satellite Launch Center, People's Republic of China

...

Latest news about this satellite

There are no fresh news available about this satellite. Check back as we update our databases every day.


Newsletter sign-up

Weekly statistics, charts and insights to help you stay on top of the space industry.